• In Deutschland
  • Länderverzeichnis
  • Für 7 Tage
  • Wassertemperatur
  • Satellitenkarten
  • Wetterkarte
  • Widgets
  • user-avatar
    Anmelden

    Stündliche Wetter Fuqing

    Heute, 23 September, Sonntag

    Zeit Temperatur Niederschläge Wind Luftdruck Luftfeuchtigkeit
    00:00 +27°C° 0 mm 2 m/S 752 mmHg 90%
    01:00 +27°C° 0 mm 2 m/S 752 mmHg 90%
    02:00 +26°C° 0 mm 2 m/S 752 mmHg 90%
    03:00 +26°C° 0 mm 2 m/S 752 mmHg 91%
    04:00 +26°C° 0 mm 2 m/S 751 mmHg 91%
    05:00 +26°C° 0 mm 2 m/S 751 mmHg 91%
    06:00 +27°C° 0 mm 2 m/S 751 mmHg 86%
    07:00 +28°C° 0 mm 2 m/S 751 mmHg 82%
    08:00 +29°C° 0 mm 2 m/S 752 mmHg 77%
    09:00 +31°C° 0.3 mm 2 m/S 752 mmHg 72%
    10:00 +32°C° 0.3 mm 2 m/S 751 mmHg 68%
    11:00 +34°C° 0.3 mm 2 m/S 751 mmHg 64%
    12:00 +34°C° 0.9 mm 3 m/S 751 mmHg 67%
    13:00 +33°C° 0.9 mm 3 m/S 750 mmHg 70%
    14:00 +31°C° 0 mm 3 m/S 750 mmHg 73%
    15:00 +30°C° 1.3 mm 3 m/S 750 mmHg 77%
    16:00 +29°C° 1.3 mm 3 m/S 750 mmHg 82%
    17:00 +28°C° 1.3 mm 3 m/S 750 mmHg 86%
    18:00 +28°C° 1.2 mm 3 m/S 750 mmHg 87%
    19:00 +27°C° 1.2 mm 3 m/S 751 mmHg 88%
    20:00 +27°C° 1.2 mm 3 m/S 751 mmHg 89%
    21:00 +26°C° 0.7 mm 4 m/S 751 mmHg 90%
    22:00 +26°C° 0.7 mm 4 m/S 751 mmHg 90%
    23:00 +26°C° 0.7 mm 4 m/S 751 mmHg 91%

    Morgen, 24 September, Montag

    Zeit Temperatur Niederschläge Wind Luftdruck Luftfeuchtigkeit
    00:00 +26°C° 0.4 mm 4 m/S 751 mmHg 91%
    01:00 +26°C° 0.4 mm 4 m/S 751 mmHg 91%
    02:00 +26°C° 0.4 mm 4 m/S 750 mmHg 91%
    03:00 +26°C° 1 mm 4 m/S 750 mmHg 91%
    04:00 +25°C° 1 mm 5 m/S 750 mmHg 91%
    05:00 +25°C° 1 mm 5 m/S 750 mmHg 91%
    06:00 +26°C° 0.3 mm 5 m/S 750 mmHg 89%
    07:00 +26°C° 0.3 mm 5 m/S 751 mmHg 88%
    08:00 +26°C° 0.3 mm 6 m/S 751 mmHg 86%
    09:00 +27°C° 0.1 mm 6 m/S 751 mmHg 81%
    10:00 +28°C° 0.1 mm 6 m/S 751 mmHg 76%
    11:00 +29°C° 0.1 mm 7 m/S 751 mmHg 72%
    12:00 +29°C° 0.1 mm 7 m/S 750 mmHg 70%
    13:00 +29°C° 0.1 mm 7 m/S 750 mmHg 69%
    14:00 +29°C° 0.1 mm 8 m/S 749 mmHg 68%
    15:00 +29°C° 0 mm 7 m/S 749 mmHg 70%
    16:00 +28°C° 0 mm 7 m/S 749 mmHg 71%
    17:00 +28°C° 0 mm 7 m/S 749 mmHg 73%
    18:00 +27°C° 0 mm 7 m/S 749 mmHg 75%
    19:00 +27°C° 0 mm 7 m/S 750 mmHg 76%
    20:00 +26°C° 0 mm 6 m/S 750 mmHg 78%
    21:00 +26°C° 0.1 mm 6 m/S 750 mmHg 80%
    22:00 +26°C° 0.1 mm 6 m/S 750 mmHg 81%
    23:00 +24°C° 0.1 mm 6 m/S 750 mmHg 82%

    übermorgen, 25 September, Dienstag

    Zeit Temperatur Niederschläge Wind Luftdruck Luftfeuchtigkeit
    00:00 +24°C° 0.1 mm 6 m/S 750 mmHg 83%
    01:00 +24°C° 0.1 mm 6 m/S 750 mmHg 83%
    02:00 +24°C° 0.1 mm 6 m/S 749 mmHg 84%
    03:00 +24°C° 0.1 mm 6 m/S 749 mmHg 84%
    04:00 +24°C° 0.1 mm 6 m/S 749 mmHg 84%
    05:00 +23°C° 0.1 mm 7 m/S 749 mmHg 84%
    06:00 +24°C° 0 mm 7 m/S 749 mmHg 81%
    07:00 +24°C° 0 mm 7 m/S 749 mmHg 78%
    08:00 +24°C° 0 mm 7 m/S 750 mmHg 75%
    09:00 +26°C° 0 mm 7 m/S 750 mmHg 72%
    10:00 +27°C° 0 mm 7 m/S 750 mmHg 69%
    11:00 +28°C° 0 mm 8 m/S 749 mmHg 65%
    12:00 +28°C° 0 mm 8 m/S 749 mmHg 64%
    13:00 +28°C° 0 mm 8 m/S 748 mmHg 63%
    14:00 +29°C° 0 mm 8 m/S 748 mmHg 62%
    15:00 +28°C° 0 mm 8 m/S 748 mmHg 64%
    16:00 +28°C° 0 mm 8 m/S 748 mmHg 66%
    17:00 +27°C° 0 mm 8 m/S 748 mmHg 68%
    18:00 +27°C° 0 mm 8 m/S 748 mmHg 70%
    19:00 +26°C° 0 mm 7 m/S 749 mmHg 72%
    20:00 +24°C° 0 mm 7 m/S 749 mmHg 73%
    21:00 +24°C° 0 mm 7 m/S 749 mmHg 74%
    22:00 +24°C° 0 mm 7 m/S 750 mmHg 75%
    23:00 +23°C° 0 mm 7 m/S 750 mmHg 77%

    26 September, Mittwoch

    Zeit Temperatur Niederschläge Wind Luftdruck Luftfeuchtigkeit
    00:00 +23°C° 0 mm 7 m/S 749 mmHg 77%
    01:00 +22°C° 0 mm 7 m/S 749 mmHg 78%
    02:00 +22°C° 0 mm 6 m/S 749 mmHg 79%
    03:00 +22°C° 0 mm 6 m/S 748 mmHg 80%
    04:00 +21°C° 0 mm 6 m/S 748 mmHg 81%
    05:00 +21°C° 0 mm 6 m/S 748 mmHg 81%
    06:00 +22°C° 0 mm 6 m/S 749 mmHg 77%
    07:00 +23°C° 0 mm 6 m/S 749 mmHg 73%
    08:00 +24°C° 0 mm 6 m/S 750 mmHg 69%
    09:00 +26°C° 0 mm 6 m/S 750 mmHg 63%
    10:00 +27°C° 0 mm 6 m/S 749 mmHg 58%
    11:00 +28°C° 0 mm 7 m/S 749 mmHg 53%
    12:00 +28°C° 0 mm 7 m/S 749 mmHg 52%
    13:00 +29°C° 0 mm 7 m/S 748 mmHg 51%
    14:00 +29°C° 0 mm 7 m/S 748 mmHg 50%
    15:00 +28°C° 0 mm 7 m/S 747 mmHg 54%
    16:00 +28°C° 0 mm 6 m/S 747 mmHg 58%
    17:00 +27°C° 0 mm 6 m/S 747 mmHg 62%
    18:00 +26°C° 0 mm 6 m/S 748 mmHg 64%
    19:00 +24°C° 0 mm 6 m/S 748 mmHg 67%
    20:00 +24°C° 0 mm 6 m/S 749 mmHg 70%
    21:00 +24°C° 0 mm 6 m/S 749 mmHg 71%
    22:00 +23°C° 0 mm 6 m/S 749 mmHg 72%
    23:00 +23°C° 0 mm 6 m/S 750 mmHg 73%

    27 September, Donnerstag

    Zeit Temperatur Niederschläge Wind Luftdruck Luftfeuchtigkeit
    00:00 +23°C° 0 mm 6 m/S 749 mmHg 74%
    01:00 +22°C° 0 mm 5 m/S 749 mmHg 75%
    02:00 +22°C° 0 mm 5 m/S 748 mmHg 76%
    03:00 +21°C° 0 mm 5 m/S 748 mmHg 77%
    04:00 +21°C° 0 mm 5 m/S 748 mmHg 77%
    05:00 +21°C° 0 mm 5 m/S 748 mmHg 77%
    06:00 +22°C° 0 mm 5 m/S 748 mmHg 73%
    07:00 +23°C° 0 mm 5 m/S 749 mmHg 69%
    08:00 +25°C° 0 mm 5 m/S 749 mmHg 65%
    09:00 +26°C° 0 mm 6 m/S 749 mmHg 62%
    10:00 +28°C° 0 mm 6 m/S 749 mmHg 60%
    11:00 +29°C° 0 mm 7 m/S 749 mmHg 57%
    12:00 +29°C° 0 mm 7 m/S 748 mmHg 57%
    13:00 +30°C° 0 mm 7 m/S 747 mmHg 56%
    14:00 +30°C° 0 mm 7 m/S 747 mmHg 56%
    15:00 +29°C° 0 mm 7 m/S 747 mmHg 59%
    16:00 +29°C° 0 mm 7 m/S 747 mmHg 62%
    17:00 +28°C° 0 mm 7 m/S 747 mmHg 66%
    18:00 +27°C° 0 mm 6 m/S 748 mmHg 69%
    19:00 +26°C° 0 mm 6 m/S 748 mmHg 71%
    20:00 +24°C° 0 mm 6 m/S 748 mmHg 74%
    21:00 +24°C° 0 mm 6 m/S 748 mmHg 76%
    22:00 +24°C° 0 mm 6 m/S 748 mmHg 77%
    23:00 +23°C° 0 mm 6 m/S 749 mmHg 78%

    28 September, Freitag

    Zeit Temperatur Niederschläge Wind Luftdruck Luftfeuchtigkeit
    00:00 +23°C° 0 mm 5 m/S 748 mmHg 79%
    01:00 +23°C° 0 mm 5 m/S 748 mmHg 80%
    02:00 +22°C° 0 mm 5 m/S 748 mmHg 80%
    03:00 +22°C° 0 mm 5 m/S 748 mmHg 81%
    04:00 +22°C° 0 mm 5 m/S 748 mmHg 81%
    05:00 +21°C° 0 mm 5 m/S 748 mmHg 81%
    06:00 +22°C° 0 mm 5 m/S 748 mmHg 77%
    07:00 +23°C° 0 mm 5 m/S 749 mmHg 73%
    08:00 +25°C° 0 mm 5 m/S 749 mmHg 69%
    09:00 +27°C° 0 mm 5 m/S 749 mmHg 64%
    10:00 +28°C° 0 mm 6 m/S 749 mmHg 60%
    11:00 +29°C° 0 mm 6 m/S 748 mmHg 55%
    12:00 +30°C° 0 mm 6 m/S 748 mmHg 54%
    13:00 +30°C° 0 mm 6 m/S 747 mmHg 53%
    14:00 +30°C° 0 mm 7 m/S 747 mmHg 52%
    15:00 +30°C° 0 mm 7 m/S 747 mmHg 57%
    16:00 +29°C° 0 mm 6 m/S 747 mmHg 61%
    17:00 +28°C° 0 mm 6 m/S 747 mmHg 65%
    18:00 +27°C° 0 mm 6 m/S 747 mmHg 68%
    19:00 +26°C° 0 mm 6 m/S 748 mmHg 71%
    20:00 +26°C° 0 mm 6 m/S 748 mmHg 74%
    21:00 +24°C° 0 mm 6 m/S 748 mmHg 74%
    22:00 +24°C° 0 mm 6 m/S 748 mmHg 75%
    23:00 +23°C° 0 mm 6 m/S 748 mmHg 76%
    Mehr zeigen